ギブス彗星

406P/Gibbs (2020)

English version
Home page
Updated on March 19, 2021

---------------------------------------------------------------------

・ プロフィール

符号 406P/2020 R8
検出日 2020年9月11日
検出光度
検出者 Y. JeongAhn (Korea Microlensing Telescope Network-SSO)

・ 写真集

・ 軌道要素

Epoch 2020 Sept. 28.0 TT = JDT 2459120.5                                        
T 2020 Sept. 15.69114 TT                                Rudenko                 
q   1.6368242            (2000.0)            P               Q                  
n   0.14592564     Peri.  352.35396     +0.99776308     -0.06671650             
a   3.5731258      Node    11.47400     +0.06239951     +0.90688563             
e   0.5419069      Incl.    1.21356     +0.02398211     +0.41606172             
P   6.75                                                                        
From 210 observations 2007 Sept. 10-2020 Oct. 20, mean residual 0".7.           

・ 光度変化

        m1 = 19.5 + 5 logΔ + 10.0 log r

        ※ 灰色の曲線は、m1 = 17.5 + 5 logΔ + 10.0 log r の光度曲線です。

---------------------------------------------------------------------

軌道要素はM.P.E.C. 2020-U269に掲載されたものです。
光度グラフはComet for Windowsで作成したものです。

---------------------------------------------------------------------

Copyright(C) Seiichi Yoshida (comet@aerith.net). All rights reserved.